Location: Bremen
(53.0793°N, 8.8017°E)
Time: 20:29:17
(UTC+02:00)

Altair - Visible Passes

Search period start: 23 April 2024 00:00
Search period end: 03 May 2024 00:00
Orbit: 1501 x 1682 km, 47.2° (Epoch: 23 April)

Date Brightness Start Highest point End Pass type
(mag) Time Alt. Az. Time Alt. Az. Time Alt. Az.
23 Apr 7.8 00:51:32 10° W 01:00:35 44° SSW 01:02:42 39° S visible
23 Apr 8.8 02:57:20 10° W 03:00:40 16° WSW 03:00:40 16° WSW visible
23 Apr 7.6 22:21:47 10° W 22:31:35 63° S 22:40:25 12° ESE visible
24 Apr 7.7 00:26:18 10° W 00:35:28 46° SSW 00:38:24 37° SSE visible
24 Apr 8.7 02:31:52 10° W 02:36:22 19° WSW 02:36:22 19° WSW visible
24 Apr 7.7 21:56:35 10° WSW 22:06:24 63° S 22:15:52 10° ESE visible
25 Apr 7.7 00:01:03 10° W 00:10:19 48° SSW 00:14:08 34° SSE visible
25 Apr 8.6 02:06:27 10° W 02:12:06 22° WSW 02:12:06 22° WSW visible
25 Apr 7.7 21:31:22 10° WSW 21:41:12 63° S 21:50:43 10° ESE visible
25 Apr 7.8 23:35:49 10° W 23:45:11 50° SSW 23:49:54 29° SSE visible
26 Apr 8.5 01:41:03 10° W 01:47:53 24° SW 01:47:53 24° SW visible
26 Apr 7.8 21:06:09 10° WSW 21:16:01 63° S 21:25:33 10° E visible
26 Apr 7.8 23:10:34 10° W 23:20:02 52° SSW 23:25:42 25° SE visible
27 Apr 8.4 01:15:41 10° W 01:23:09 26° SW 01:23:41 26° SW visible
27 Apr 7.8 22:45:20 10° W 22:54:53 54° SSW 23:01:32 21° SE visible
28 Apr 8.3 00:50:20 10° W 00:58:05 28° SW 00:59:32 27° SSW visible
28 Apr 7.8 22:20:06 10° W 22:29:44 55° SSW 22:37:24 16° SE visible
29 Apr 8.3 00:25:01 10° W 00:33:01 30° SW 00:35:24 27° SSW visible
29 Apr 7.8 21:54:52 10° W 22:04:34 57° SSW 22:13:18 12° ESE visible
29 Apr 8.3 23:59:42 10° W 00:07:57 32° SW 00:11:18 26° S visible
30 Apr 7.9 21:29:38 10° W 21:39:23 58° SSW 21:48:49 10° ESE visible
30 Apr 8.3 23:34:24 10° W 23:42:51 34° SW 23:47:13 23° S visible
01 May 9.2 01:44:26 10° WSW 01:45:00 10° WSW 01:45:13 10° WSW visible
01 May 8.3 23:09:07 10° W 23:17:46 36° SW 23:23:10 21° SSE visible
02 May 9.1 01:17:10 10° WSW 01:20:01 12° WSW 01:21:10 11° SW visible
02 May 8.3 22:43:50 10° W 22:52:40 38° SW 22:59:09 17° SSE visible
